User: anonymous   Login
Location: Unspecified
(0.0000°N, 0.0000°E)
Time: 10:23:06
(UTC+01:00)
Language:

Cosmos 2263 Rocket - Orbit

View from above orbital plane
View from above orbital plane
View from above satellite
View from above satellite

Ground track
Ground track

The orbit data is extracted from the following two-line orbital elements,

1 22803U 93059B   17057.44763235 -.00000125  00000-0 -38632-4 0  9991
2 22803  70.9899 122.7915 0018068 201.7790 158.2567 14.16763040212590
Epoch (UTC): 26 February 2017 10:44:35
Eccentricity: 0.0018068
inclination: 70.9899°
perigee height: 823 km
apogee height: 849 km
right ascension of ascending node: 122.7915°
argument of perigee: 201.7790°
revolutions per day: 14.16763040
mean anomaly at epoch: 158.2567°
orbit number at epoch: 21259

The dashed part of the orbit path shows where the satellite is in the earth's shadow,  

DLR